This demonstration page uses our WeatherBlox Daily Observations layout. Learn more.

Left ArrowRight Arrow

39.08367, -84.50855

Hourly Observations for March 1, 2016

Temp ( °F °C ) Dew Point ( °F °C ) Humidity (%) Winds ( mph kmh ) Pressure ( in mb ) Visibility ( mi km ) Precip ( " mm )
12:53 am 00:53 Clear 35 1.7 34 1.1 96 96 N N/A 30.03 1017 10 16.0934 N/A
1:53 am 01:53 Clear 34 1.1 34 1.1 100 100 N N/A 30.02 1017 10 16.0934 N/A
2:53 am 02:53 Clear 33 0.6 33 0.6 100 100 N N/A 29.99 1016 10 16.0934 N/A
3:53 am 03:53 Clear 33 0.6 32 undefined 96 96 N N/A 29.96 1015 10 16.0934 N/A
4:53 am 04:53 Clear with Mist and Fog 32 undefined 31 -0.6 96 96 N N/A 29.97 1015 6 9.65604 N/A
5:37 am 05:37 Clear with Mist and Fog 30 -1.1 30 -1.1 100 100 N N/A 30 1016 1.75 2.816345 N/A
5:45 am 05:45 Clear with Mist and Fog 30 -1 30 -1 100 100 N N/A 30 1016 3 4.82802 N/A
5:53 am 05:53 Clear 31 -0.6 31 -0.6 100 100 N N/A 29.96 1014 7 11.26538 N/A
6:24 am 06:24 Clear with Mist and Fog 30 -1 30 -1 100 100 N N/A 29.97 1015 1.5 2.41401 N/A
6:44 am 06:44 Clear with Mist and Fog 30 -1 30 -1 100 100 N N/A 29.97 1015 3 4.82802 N/A
6:53 am 06:53 Clear 31 -0.6 30 -1.1 96 96 SW 3 6 29.94 1014 10 16.0934 N/A
7:53 am 07:53 Sunny 33 0.6 33 0.6 100 100 WSW 5 7 29.92 1013 10 16.0934 N/A
8:53 am 08:53 Mostly Sunny 41 5 36 2.2 82 82 W 6 9 29.88 1012 10 16.0934 N/A
8:56 am 08:56 Partly Cloudy 41 5 36 2 81 81 W 6 9 29.91 1013 10 16.0934 N/A
9:53 am 09:53 Partly Cloudy 46 7.8 37 2.8 71 71 WSW 3 6 29.83 1010 10 16.0934 N/A
10:19 am 10:19 Mostly Cloudy with Light Rain 47 8.3 36 2.2 66 66 SSW 12 19 29.85 1011 5 8.0467 N/A
10:53 am 10:53 Partly Cloudy 49 9.4 42 5.6 77 77 SSW 8 13 29.8 1009 8 12.87472 0.01 0.254
11:53 am 11:53 Mostly Cloudy 51 10.6 43 6.1 74 74 SSW 5 7 29.75 1007 10 16.0934 N/A
12:53 pm 12:53 Mostly Cloudy with Light Rain 55 12.8 45 7.2 69 69 WSW 9 15 29.7 1006 7 11.26538 N/A
12:58 pm 12:58 Mostly Cloudy with Light Rain 54 12 45 7 72 72 WNW 18 30 29.71 1006 9 14.48406 N/A
1:53 pm 13:53 Cloudy with Heavy Rain 49 9.4 48 8.9 97 97 SSW 5 7 29.67 1005 3 4.82802 0.17 4.318
2:53 pm 14:53 Cloudy with Light Rain 51 10.6 50 10 96 96 SSW 10 17 29.62 1003 7 11.26538 0.09 2.286
3:53 pm 15:53 Cloudy with Light Rain 53 11.7 51 10.6 93 93 SSW 14 22 29.6 1002 10 16.0934 0.02 0.508
4:32 pm 16:32 Cloudy with Rain 52 11 52 11 100 100 SW 10 17 29.59 1002 1.75 2.816345 N/A
4:44 pm 16:44 Cloudy with Light Rain 52 11 50 10 94 94 WSW 21 33 29.59 1002 3 4.82802 N/A
4:53 pm 16:53 Cloudy 52 11.1 49 9.4 89 89 W 20 31 29.61 1003 10 16.0934 0.05 1.27
5:53 pm 17:53 Cloudy with Light Rain 49 9.4 44 6.7 83 83 W 21 33 29.66 1004 10 16.0934 0.01 0.254
6:27 pm 18:27 Cloudy 45 7 41 5 87 87 W 29 46 29.74 1007 10 16.0934 N/A
6:53 pm 18:53 Cloudy 40 4.4 34 1.1 79 79 W 35 56 29.77 1008 10 16.0934 0.01 0.254
7:38 pm 19:38 Cloudy with Light Rain 37 3 34 1 87 87 WNW 18 30 29.83 1010 8 12.87472 N/A
7:53 pm 19:53 Cloudy 36 2.2 31 -0.6 82 82 W 24 39 29.85 1011 10 16.0934 N/A
8:53 pm 20:53 Cloudy 34 1.1 28 -2.2 79 79 WNW 20 31 29.9 1013 10 16.0934 N/A
9:53 pm 21:53 Cloudy 32 undefined 23 -5 69 69 NW 15 24 29.95 1014 10 16.0934 N/A
10:53 pm 22:53 Cloudy 31 -0.6 22 -5.6 69 69 NW 13 20 30 1016 10 16.0934 N/A
11:53 pm 23:53 Cloudy 31 -0.6 22 -5.6 69 69 NW 8 13 30.01 1016 10 16.0934 N/A

Powered by AerisWeather